Simultaneous Nadir Overpasses (SNOs) Predictions

Prediction of SNOs between AQUA and GOES-15 Satellite Orbit:

Table of predicted SNOs for the next 14.0 days since TLE Epoch: 8/10/2024
Index Date Time (AQUA) AQUA Lat,Lon GOES-15 Lat,Lon Distance(km) Time Diff (sec)
1 08/11/2024 09:56:05 0.19, 64.60 -0.44, 61.67 333.18 80
2 08/11/2024 22:16:05 0.89, 59.76 0.45, 61.74 225.20 80
3 08/13/2024 21:59:04 -0.01, 63.92 0.44, 61.82 239.33 80
4 08/14/2024 10:19:13 -1.02, 59.05 -0.44, 61.79 312.08 80
5 08/16/2024 10:02:10 -0.13, 63.22 -0.43, 61.88 152.75 80
6 08/16/2024 22:22:10 1.17, 58.38 0.43, 61.94 404.37 80
7 08/18/2024 22:05:05 0.29, 62.56 0.43, 62.03 60.28 80
8 08/19/2024 10:25:11 -1.38, 57.70 -0.42, 62.02 492.57 80
9 08/21/2024 10:08:05 -0.46, 61.87 -0.42, 62.11 26.67 80
10 08/23/2024 09:50:58 0.44, 66.06 -0.42, 62.20 439.82 80
11 08/23/2024 22:10:55 0.65, 61.24 0.42, 62.26 116.14 80
